• Em Portugal
  • Lista de países
  • Para 7 dias
  • Temperatura da água
  • Mapas de satélite
  • Mapa do tempo
  • Widgets de tempo
  • user-avatar
    Iniciar Sessão

    Previsão horária em Sudzioka

    Hoje, 24 Setembro, Segunda-feira

    Tempo Temperatura Precipitação Vento Pressão Humidade
    00:00 +25°C° 0 mm 2 m/s 760 mmHg 89%
    01:00 +25°C° 0 mm 2 m/s 760 mmHg 89%
    02:00 +24°C° 0 mm 2 m/s 760 mmHg 89%
    03:00 +24°C° 0 mm 2 m/s 759 mmHg 89%
    04:00 +24°C° 0 mm 2 m/s 760 mmHg 89%
    05:00 +24°C° 0 mm 1 m/s 760 mmHg 89%
    06:00 +24°C° 0 mm 1 m/s 760 mmHg 88%
    07:00 +26°C° 0 mm 1 m/s 760 mmHg 82%
    08:00 +28°C° 0 mm 1 m/s 760 mmHg 76%
    09:00 +30°C° 0 mm 1 m/s 760 mmHg 71%
    10:00 +30°C° 0 mm 1 m/s 759 mmHg 69%
    11:00 +31°C° 0 mm 2 m/s 759 mmHg 67%
    12:00 +31°C° 0 mm 2 m/s 759 mmHg 65%
    13:00 +31°C° 0.1 mm 2 m/s 759 mmHg 67%
    14:00 +30°C° 0.1 mm 2 m/s 759 mmHg 70%
    15:00 +29°C° 0 mm 2 m/s 759 mmHg 78%
    16:00 +28°C° 0 mm 1 m/s 759 mmHg 82%
    17:00 +27°C° 0 mm 1 m/s 759 mmHg 85%
    18:00 +26°C° 0 mm 1 m/s 759 mmHg 89%
    19:00 +26°C° 0 mm 1 m/s 759 mmHg 90%
    20:00 +25°C° 0 mm 1 m/s 759 mmHg 91%
    21:00 +25°C° 0 mm 1 m/s 759 mmHg 92%
    22:00 +25°C° 0 mm 1 m/s 759 mmHg 92%
    23:00 +25°C° 0 mm 1 m/s 759 mmHg 92%

    Amanhã, 25 Setembro, Terça-feira

    Tempo Temperatura Precipitação Vento Pressão Humidade
    00:00 +22°C° 0 mm 0 m/s 759 mmHg 92%
    01:00 +24°C° 0 mm 1 m/s 759 mmHg 92%
    02:00 +24°C° 0 mm 1 m/s 759 mmHg 91%
    03:00 +24°C° 0 mm 1 m/s 759 mmHg 91%
    04:00 +24°C° 0 mm 1 m/s 759 mmHg 89%
    05:00 +24°C° 0 mm 1 m/s 759 mmHg 88%
    06:00 +24°C° 0 mm 1 m/s 759 mmHg 86%
    07:00 +25°C° 0.1 mm 1 m/s 759 mmHg 82%
    08:00 +26°C° 0.1 mm 1 m/s 759 mmHg 77%
    09:00 +27°C° 0.1 mm 1 m/s 759 mmHg 72%
    10:00 +28°C° 0.4 mm 1 m/s 759 mmHg 71%
    11:00 +28°C° 0.4 mm 1 m/s 759 mmHg 69%
    12:00 +28°C° 0.4 mm 2 m/s 759 mmHg 67%
    13:00 +27°C° 1.2 mm 2 m/s 759 mmHg 73%
    14:00 +26°C° 1.2 mm 1 m/s 759 mmHg 79%
    15:00 +25°C° 1.2 mm 1 m/s 759 mmHg 85%
    16:00 +25°C° 0.5 mm 2 m/s 759 mmHg 86%
    17:00 +24°C° 0.5 mm 2 m/s 759 mmHg 87%
    18:00 +24°C° 0.5 mm 3 m/s 759 mmHg 88%
    19:00 +24°C° 0.1 mm 3 m/s 759 mmHg 89%
    20:00 +22°C° 0.1 mm 3 m/s 759 mmHg 89%
    21:00 +22°C° 0.1 mm 3 m/s 760 mmHg 89%
    22:00 +22°C° 0.1 mm 3 m/s 760 mmHg 89%
    23:00 +22°C° 0.1 mm 3 m/s 760 mmHg 89%

    Depois de amanhã, 26 Setembro, Quarta-feira

    Tempo Temperatura Precipitação Vento Pressão Humidade
    00:00 +22°C° 0.1 mm 3 m/s 760 mmHg 89%
    01:00 +22°C° 0 mm 3 m/s 759 mmHg 89%
    02:00 +22°C° 0 mm 3 m/s 759 mmHg 89%
    03:00 +21°C° 0 mm 3 m/s 759 mmHg 89%
    04:00 +21°C° 0 mm 3 m/s 759 mmHg 89%
    05:00 +21°C° 0 mm 3 m/s 759 mmHg 88%
    06:00 +21°C° 0 mm 3 m/s 759 mmHg 88%
    07:00 +22°C° 0 mm 4 m/s 760 mmHg 84%
    08:00 +25°C° 0 mm 4 m/s 760 mmHg 79%
    09:00 +26°C° 0 mm 4 m/s 760 mmHg 75%
    10:00 +26°C° 0 mm 4 m/s 760 mmHg 72%
    11:00 +27°C° 0 mm 4 m/s 760 mmHg 68%
    12:00 +28°C° 0 mm 4 m/s 759 mmHg 65%
    13:00 +27°C° 0.2 mm 4 m/s 759 mmHg 66%
    14:00 +27°C° 0.2 mm 4 m/s 759 mmHg 68%
    15:00 +27°C° 0.2 mm 5 m/s 758 mmHg 70%
    16:00 +26°C° 0.7 mm 5 m/s 759 mmHg 74%
    17:00 +25°C° 0.7 mm 5 m/s 759 mmHg 78%
    18:00 +23°C° 0.7 mm 5 m/s 759 mmHg 82%
    19:00 +22°C° 0.7 mm 5 m/s 759 mmHg 83%
    20:00 +22°C° 0.7 mm 5 m/s 759 mmHg 83%
    21:00 +22°C° 0.7 mm 5 m/s 759 mmHg 84%
    22:00 +22°C° 0.4 mm 5 m/s 759 mmHg 85%
    23:00 +21°C° 0.4 mm 5 m/s 759 mmHg 86%

    27 Setembro, Quinta-feira

    Tempo Temperatura Precipitação Vento Pressão Humidade
    00:00 +21°C° 0.4 mm 5 m/s 759 mmHg 87%
    01:00 +21°C° 0.8 mm 5 m/s 758 mmHg 88%
    02:00 +21°C° 0.8 mm 5 m/s 758 mmHg 88%
    03:00 +21°C° 0.8 mm 5 m/s 757 mmHg 88%
    04:00 +20°C° 0.5 mm 5 m/s 757 mmHg 88%
    05:00 +20°C° 0.5 mm 5 m/s 757 mmHg 88%
    06:00 +20°C° 0.5 mm 5 m/s 758 mmHg 87%
    07:00 +20°C° 0.5 mm 5 m/s 758 mmHg 87%
    08:00 +21°C° 0.5 mm 5 m/s 758 mmHg 86%
    09:00 +21°C° 0.5 mm 5 m/s 758 mmHg 85%
    10:00 +21°C° 1 mm 5 m/s 758 mmHg 85%
    11:00 +21°C° 1 mm 5 m/s 757 mmHg 85%
    12:00 +21°C° 1 mm 6 m/s 757 mmHg 85%
    13:00 +20°C° 2.1 mm 6 m/s 756 mmHg 87%
    14:00 +20°C° 2.1 mm 5 m/s 756 mmHg 88%
    15:00 +20°C° 2.1 mm 5 m/s 756 mmHg 90%
    16:00 +20°C° 1.5 mm 5 m/s 756 mmHg 90%
    17:00 +19°C° 1.5 mm 5 m/s 756 mmHg 89%
    18:00 +19°C° 1.5 mm 5 m/s 756 mmHg 89%
    19:00 +19°C° 1.6 mm 4 m/s 757 mmHg 89%
    20:00 +19°C° 1.6 mm 4 m/s 757 mmHg 90%
    21:00 +19°C° 1.6 mm 3 m/s 757 mmHg 90%
    22:00 +19°C° 0.7 mm 3 m/s 757 mmHg 90%
    23:00 +19°C° 0.7 mm 3 m/s 757 mmHg 89%

    28 Setembro, Sexta-feira

    Tempo Temperatura Precipitação Vento Pressão Humidade
    00:00 +19°C° 0.7 mm 3 m/s 756 mmHg 89%
    01:00 +19°C° 0.3 mm 2 m/s 756 mmHg 89%
    02:00 +19°C° 0.3 mm 2 m/s 756 mmHg 88%
    03:00 +19°C° 0.3 mm 2 m/s 756 mmHg 88%
    04:00 +20°C° 0.1 mm 1 m/s 757 mmHg 88%
    05:00 +19°C° 0.1 mm 1 m/s 757 mmHg 88%
    06:00 +19°C° 0.1 mm 1 m/s 757 mmHg 89%
    07:00 +21°C° 0 mm 1 m/s 757 mmHg 83%
    08:00 +23°C° 0 mm 1 m/s 758 mmHg 76%
    09:00 +25°C° 0 mm 1 m/s 758 mmHg 70%
    10:00 +26°C° 0 mm 1 m/s 758 mmHg 65%
    11:00 +27°C° 0 mm 2 m/s 758 mmHg 61%
    12:00 +28°C° 0 mm 2 m/s 758 mmHg 56%
    13:00 +28°C° 0 mm 2 m/s 757 mmHg 58%
    14:00 +28°C° 0 mm 2 m/s 757 mmHg 59%
    15:00 +27°C° 0 mm 2 m/s 757 mmHg 60%
    16:00 +26°C° 0 mm 2 m/s 758 mmHg 68%
    17:00 +24°C° 0 mm 2 m/s 758 mmHg 76%
    18:00 +21°C° 0 mm 2 m/s 759 mmHg 84%
    19:00 +21°C° 0 mm 2 m/s 760 mmHg 86%
    20:00 +22°C° 0 mm 1 m/s 760 mmHg 87%
    21:00 +22°C° 0 mm 1 m/s 760 mmHg 89%
    22:00 +21°C° 0 mm 1 m/s 760 mmHg 89%
    23:00 +21°C° 0 mm 1 m/s 760 mmHg 90%

    29 Setembro, Sábado

    Tempo Temperatura Precipitação Vento Pressão Humidade
    00:00 +21°C° 0 mm 1 m/s 760 mmHg 90%
    01:00 +21°C° 0 mm 1 m/s 760 mmHg 91%
    02:00 +21°C° 0 mm 1 m/s 760 mmHg 91%
    03:00 +20°C° 0 mm 1 m/s 760 mmHg 91%
    04:00 +20°C° 0 mm 1 m/s 760 mmHg 90%
    05:00 +20°C° 0 mm 1 m/s 760 mmHg 89%
    06:00 +19°C° 0 mm 2 m/s 760 mmHg 89%
    07:00 +22°C° 0 mm 1 m/s 761 mmHg 81%
    08:00 +24°C° 0 mm 1 m/s 761 mmHg 73%
    09:00 +26°C° 0 mm 1 m/s 761 mmHg 65%
    10:00 +27°C° 0 mm 2 m/s 760 mmHg 62%
    11:00 +28°C° 0 mm 2 m/s 760 mmHg 60%
    12:00 +29°C° 0 mm 3 m/s 759 mmHg 57%
    13:00 +28°C° 0 mm 3 m/s 759 mmHg 60%
    14:00 +28°C° 0 mm 3 m/s 759 mmHg 63%
    15:00 +27°C° 0 mm 3 m/s 758 mmHg 66%
    16:00 +26°C° 0 mm 3 m/s 759 mmHg 72%
    17:00 +25°C° 0 mm 2 m/s 759 mmHg 79%
    18:00 +24°C° 0 mm 2 m/s 759 mmHg 85%
    19:00 +24°C° 0.2 mm 2 m/s 759 mmHg 86%
    20:00 +23°C° 0.2 mm 2 m/s 759 mmHg 87%
    21:00 +23°C° 0.2 mm 2 m/s 759 mmHg 89%
    22:00 +23°C° 0.8 mm 2 m/s 759 mmHg 89%
    23:00 +23°C° 0.8 mm 2 m/s 759 mmHg 89%
    Mostrar mais